EGFFEGBB

Guest
Details From EGFF - Cardiff
To EGBB - Birmingham
Flight Number -
Tags generated
Created
Modified
Stats Distance 87 nm / 161 km
Max Altitude 8,200 ft / 2,499 m
Waypoints 3
Social Downloads 0
Likes 0
Share VATSIM

Download

Looking for another format? Having issues loading an existing format? Contact us
Advertisement - Login to hide

Notes

Basic altitude profile: - Ascent Rate: 1600ft/min - Ascent Speed: 230kts - Cruise Altitude: 5000ft - Cruise Speed: 420kts - Descent Rate: 1500ft/min - Descent Speed: 250kts Options: - Use NATs: yes - Use PACOTS: yes - Use low airways: yes - Use high airways: no

Route

EGFF ERNOK EGBB

ID Type Via Altitude Latitude Longitude Leg Dist Tot Dist Heading (true) Name
O EGFF APT - 0 ft / 0 m 51.39656˚ -3.34320˚ - 0 nm - Cardiff
ERNOK FIX - 8,200 ft / 2,499 m 51.69167˚ -2.94556˚ 23 nm 23 nm 40° / 40° -
O EGBB APT - 0 ft / 0 m 52.45597˚ -1.75038˚ 63 nm 86 nm 43° / 44° Birmingham

Altitude Profile

Advertisement - Login to hide

EGFF

Details ICAO EGFF (CWL)
Name Cardiff
Region United Kingdom
Timezone Europe/London (UTC+1.0)
Stats Elevation 220 ft / 67 m (AMSL)
Location 51.396565° -3.343202°
Runways 1
Magnetic Variation 1.500° W

METAR

EGFF 221250Z AUTO 24007KT 190V270 9999 NCD 17/07 Q1032

Decode

TAF

TAF EGFF 221100Z 2212/2312 22008KT CAVOK

Decode

Departure Runways

ID Width Length Bearing (true) Bearing (mag) Surface Threshold Offset Overrun Length
12 131 ft / 40 m 7,831 ft / 2,387 m 116.82° 118.32° Asphalt 715 ft / 218 m 0 ft / 0 m
30 131 ft / 40 m 7,831 ft / 2,387 m 296.84° 298.34° Asphalt 594 ft / 181 m 0 ft / 0 m

EGBB

Details ICAO EGBB (BHX)
Name Birmingham
Region United Kingdom
Timezone Europe/London (UTC+1.0)
Stats Elevation 327 ft / 100 m (AMSL)
Location 52.455966° -1.750378°
Runways 1
Magnetic Variation 1.061° W

METAR

EGBB 221250Z VRB04KT 9999 FEW044 19/07 Q1031

Decode

TAF

TAF EGBB 221100Z 2212/2312 31007KT 9999 FEW045= TAF EGFF 221100Z 2212/2312 22008KT CAVOK

Decode

Destination Runways

ID Width Length Bearing (true) Bearing (mag) Surface Threshold Offset Overrun Length
15 151 ft / 46 m 8,477 ft / 2,584 m 145.87° 146.93° Asphalt 925 ft / 282 m 0 ft / 0 m
33 151 ft / 46 m 8,477 ft / 2,584 m 325.89° 326.95° Asphalt 958 ft / 292 m 0 ft / 0 m

Approach Navaids

Runway Type Ident Frequency Range Bearing (true) Bearing (mag) Slope Elevation
15 Localiser IBIR 110.10 MHz 18 nm / 33 km 145.89° 146.95° - 325 ft / 99 m (AMSL)
15 Glidescope IBIR 110.10 MHz 10 nm / 19 km 145.88° 146.94° 3.00° 325 ft / 99 m (AMSL)
15 DME IBIR 110.10 MHz 18 nm / 33 km - - - 349 ft / 106 m (AMSL)
33 Localiser IBM 110.10 MHz 18 nm / 33 km 325.87° 326.93° - 325 ft / 99 m (AMSL)
33 Glidescope IBM 110.10 MHz 10 nm / 19 km 325.88° 326.94° 3.00° 325 ft / 99 m (AMSL)
33 DME IBM 110.10 MHz 18 nm / 33 km - - - 327 ft / 100 m (AMSL)

Popular Alternatives